Morris, MN

10:42 AM CDT on April 20, 2018 (GMT -0500)
Morris Municipal

Weather History for KMOX - October, 2012

Change the Weather History Date:

Tuesday, October 9, 2012

  Actual Average Record
Temperature  
Mean Temperature 40 °F -  
Max Temperature 44 °F 59 °F 86 °F (2003)
Min Temperature 35 °F 37 °F 24 °F (2000)
Degree Days  
Heating Degree Days 24    
Moisture  
Dew Point 28 °F    
Average Humidity 58    
Maximum Humidity 70    
Minimum Humidity 45    
Precipitation  
Precipitation 0.00 in - - ()
Sea Level Pressure  
Sea Level Pressure 29.85 in    
Wind  
Wind Speed 13 mph (WNW)    
Max Wind Speed 28 mph    
Max Gust Speed 36 mph    
Visibility 10 miles    
Events      
Averages and records for this station are not official NWS values.
T = Trace of Precipitation, MM = Missing Value Source: NWS Daily Summary

Daily Weather History Graph

Daily Weather History Graph

Search for Another Location

Airport or City:

Astronomy

Oct. 09, 2012 Rise Set
Actual Time 7:33 AM CDT 6:48 PM CDT
Civil Twilight 7:03 AM CDT 7:17 PM CDT
Nautical Twilight 6:28 AM CDT 7:52 PM CDT
Astronomical Twilight 5:54 AM CDT 8:26 PM CDT
Moon 12:53 AM CDT (10/9) 3:31 PM CDT (10/9)
Length of Visible Light 12h 14m
Length of Day
11h 15m
Last Quarter, 36% of the Moon is Illuminated
Oct 9
Last Quarter
Oct 15
New
Oct 21
First Quarter
Oct 29
Full
Nov 6
Last Quarter

Hourly Weather History & Observations

Time (CDT) Temp. Windchill Dew Point Humidity Pressure Visibility Wind Dir Wind Speed Gust Speed Precip Events Conditions
12:10 AM 42.8 °F 37.5 °F 33.8 °F 70% 29.71 in 10.0 mi West 9.2 mph - N/A   Clear
12:30 AM 42.8 °F 38.0 °F 33.8 °F 70% 29.72 in 10.0 mi West 8.1 mph - N/A   Clear
12:50 AM 42.8 °F 37.5 °F 33.8 °F 70% 29.72 in 10.0 mi West 9.2 mph - N/A   Scattered Clouds
1:10 AM 44.6 °F 39.7 °F 33.8 °F 66% 29.72 in 10.0 mi WNW 9.2 mph - N/A   Scattered Clouds
1:30 AM 44.6 °F 39.7 °F 33.8 °F 66% 29.72 in 10.0 mi WNW 9.2 mph - N/A   Scattered Clouds
1:50 AM 44.6 °F 39.7 °F 33.8 °F 66% 29.73 in 10.0 mi WNW 9.2 mph - N/A   Scattered Clouds
2:10 AM 44.6 °F 40.2 °F 33.8 °F 66% 29.73 in 10.0 mi WNW 8.1 mph - N/A   Scattered Clouds
2:30 AM 44.6 °F 39.7 °F 33.8 °F 66% 29.73 in 10.0 mi WNW 9.2 mph - N/A   Scattered Clouds
3:10 AM 44.6 °F 39.7 °F 33.8 °F 66% 29.73 in 10.0 mi West 9.2 mph - N/A   Overcast
3:30 AM 44.6 °F 39.2 °F 32.0 °F 61% 29.73 in 10.0 mi West 10.4 mph - N/A   Mostly Cloudy
3:50 AM 44.6 °F 38.8 °F 32.0 °F 61% 29.73 in 10.0 mi WNW 11.5 mph - N/A   Scattered Clouds
4:10 AM 44.6 °F 39.2 °F 30.2 °F 57% 29.74 in 10.0 mi WNW 10.4 mph - N/A   Mostly Cloudy
4:30 AM 44.6 °F 39.7 °F 32.0 °F 61% 29.74 in 10.0 mi WNW 9.2 mph - N/A   Overcast
4:50 AM 44.6 °F 39.7 °F 30.2 °F 57% 29.74 in 10.0 mi WNW 9.2 mph - N/A   Overcast
5:10 AM 44.6 °F 39.7 °F 30.2 °F 57% 29.75 in 10.0 mi West 9.2 mph - N/A   Overcast
5:30 AM 44.6 °F 39.2 °F 30.2 °F 57% 29.75 in 10.0 mi WNW 10.4 mph - N/A   Overcast
5:50 AM 44.6 °F 38.4 °F 30.2 °F 57% 29.76 in 10.0 mi WNW 12.7 mph - N/A   Scattered Clouds
6:10 AM 44.6 °F 39.2 °F 30.2 °F 57% 29.76 in 10.0 mi WNW 10.4 mph - N/A   Scattered Clouds
6:30 AM 42.8 °F 36.2 °F 28.4 °F 57% 29.76 in 10.0 mi WNW 12.7 mph - N/A   Overcast
6:50 AM 42.8 °F 37.5 °F 28.4 °F 57% 29.77 in 10.0 mi WNW 9.2 mph - N/A   Overcast
7:10 AM 41.0 °F 33.9 °F 28.4 °F 61% 29.77 in 10.0 mi West 12.7 mph - N/A   Mostly Cloudy
7:30 AM 41.0 °F 34.3 °F 26.6 °F 57% 29.77 in 10.0 mi West 11.5 mph - N/A   Clear
7:50 AM 39.2 °F 33.0 °F 26.6 °F 61% 29.77 in 10.0 mi West 9.2 mph - N/A   Clear
8:10 AM 39.2 °F 32.5 °F 26.6 °F 61% 29.77 in 10.0 mi West 10.4 mph - N/A   Clear
8:30 AM 39.2 °F 31.2 °F 26.6 °F 61% 29.78 in 10.0 mi West 13.8 mph - N/A   Clear
8:50 AM 42.8 °F 35.4 °F 26.6 °F 53% 29.78 in 10.0 mi West 15.0 mph - N/A   Scattered Clouds
9:10 AM 42.8 °F 34.3 °F 26.6 °F 53% 29.78 in 10.0 mi West 19.6 mph 26.5 mph N/A   Mostly Cloudy
9:30 AM 42.8 °F 33.8 °F 26.6 °F 53% 29.78 in 10.0 mi West 21.9 mph 27.6 mph N/A   Overcast
9:50 AM 42.8 °F 34.3 °F 28.4 °F 57% 29.78 in 10.0 mi West 19.6 mph 26.5 mph N/A   Overcast
10:10 AM 44.6 °F 36.1 °F 28.4 °F 53% 29.79 in 10.0 mi WNW 21.9 mph 31.1 mph N/A   Overcast
10:30 AM 44.6 °F 35.7 °F 28.4 °F 53% 29.79 in 10.0 mi West 24.2 mph 29.9 mph N/A   Mostly Cloudy
10:50 AM 44.6 °F 36.1 °F 28.4 °F 53% 29.80 in 10.0 mi WNW 21.9 mph 29.9 mph N/A   Mostly Cloudy
11:10 AM 42.8 °F 33.3 °F 30.2 °F 61% 29.80 in 10.0 mi WNW 24.2 mph 33.4 mph N/A   Overcast
11:30 AM 42.8 °F 33.8 °F 30.2 °F 61% 29.81 in 10.0 mi WNW 21.9 mph 29.9 mph N/A   Overcast
11:50 AM 42.8 °F 33.3 °F 30.2 °F 61% 29.82 in 10.0 mi NW 24.2 mph 29.9 mph N/A   Overcast
12:10 PM 44.6 °F 36.1 °F 32.0 °F 61% 29.82 in 10.0 mi NW 21.9 mph 27.6 mph N/A   Overcast
12:30 PM 42.8 °F 32.7 °F 33.8 °F 70% 29.84 in 10.0 mi NNW 27.6 mph 34.5 mph N/A   Overcast
12:50 PM 42.8 °F 33.3 °F 32.0 °F 66% 29.85 in 10.0 mi NNW 24.2 mph 31.1 mph N/A   Overcast
1:10 PM 42.8 °F 33.5 °F 30.2 °F 61% 29.86 in 10.0 mi NNW 23.0 mph 35.7 mph N/A   Unknown
1:28 PM 42.8 °F 32.7 °F 30.2 °F 61% 29.86 in 10.0 mi NW 27.6 mph - N/A   Overcast
1:49 PM 42.8 °F 33.3 °F 30.2 °F 61% 29.87 in 10.0 mi NW 24.2 mph 34.5 mph N/A   Overcast
2:10 PM 42.8 °F 33.5 °F 30.2 °F 61% 29.87 in 10.0 mi NW 23.0 mph 29.9 mph N/A   Overcast
2:30 PM 42.8 °F 33.3 °F 28.4 °F 57% 29.88 in 10.0 mi NNW 24.2 mph 29.9 mph N/A   Overcast
2:50 PM 42.8 °F 34.0 °F 30.2 °F 61% 29.89 in 10.0 mi NNW 20.7 mph 31.1 mph N/A   Overcast
3:10 PM 42.8 °F 33.3 °F 28.4 °F 57% 29.90 in 10.0 mi NW 24.2 mph 29.9 mph N/A   Overcast
3:30 PM 42.8 °F 33.5 °F 28.4 °F 57% 29.90 in 10.0 mi NW 23.0 mph 27.6 mph N/A   Overcast
3:50 PM 42.8 °F 34.3 °F 26.6 °F 53% 29.91 in 10.0 mi NW 19.6 mph 31.1 mph N/A   Overcast
4:10 PM 42.8 °F 34.0 °F 28.4 °F 57% 29.92 in 10.0 mi NNW 20.7 mph 28.8 mph N/A   Overcast
4:30 PM 42.8 °F 33.8 °F 26.6 °F 53% 29.92 in 10.0 mi NW 21.9 mph 28.8 mph N/A   Overcast
4:50 PM 42.8 °F 33.3 °F 24.8 °F 49% 29.93 in 10.0 mi NW 24.2 mph 31.1 mph N/A   Overcast
5:10 PM 42.8 °F 33.5 °F 24.8 °F 49% 29.94 in 10.0 mi NW 23.0 mph 28.8 mph N/A   Overcast
5:30 PM 42.8 °F 33.3 °F 24.8 °F 49% 29.95 in 10.0 mi NW 24.2 mph 27.6 mph N/A   Overcast
5:50 PM 42.8 °F 34.5 °F 23.0 °F 46% 29.95 in 10.0 mi NW 18.4 mph 27.6 mph N/A   Overcast
6:10 PM 42.8 °F 34.8 °F 23.0 °F 46% 29.96 in 10.0 mi NW 17.3 mph 23.0 mph N/A   Overcast
6:30 PM 41.0 °F 33.1 °F 23.0 °F 49% 29.96 in 10.0 mi NW 15.0 mph 23.0 mph N/A   Mostly Cloudy
6:50 PM 41.0 °F 34.3 °F 23.0 °F 49% 29.97 in 10.0 mi NW 11.5 mph - N/A   Overcast
7:10 PM 39.2 °F 32.5 °F 23.0 °F 52% 29.98 in 10.0 mi NW 10.4 mph - N/A   Mostly Cloudy
7:30 PM 39.2 °F 31.6 °F 23.0 °F 52% 29.98 in 10.0 mi NW 12.7 mph - N/A   Overcast
7:50 PM 41.0 °F 33.5 °F 21.2 °F 45% 29.98 in 10.0 mi NW 13.8 mph 19.6 mph N/A   Overcast
8:10 PM 41.0 °F 33.1 °F 21.2 °F 45% 29.99 in 10.0 mi NW 15.0 mph - N/A   Overcast
8:30 PM 41.0 °F 34.7 °F 21.2 °F 45% 29.99 in 10.0 mi NW 10.4 mph - N/A   Overcast
8:50 PM 39.2 °F 33.0 °F 23.0 °F 52% 29.99 in 10.0 mi NW 9.2 mph - N/A   Overcast
9:10 PM 39.2 °F 33.0 °F 24.8 °F 56% 30.00 in 10.0 mi NW 9.2 mph - N/A   Overcast
9:30 PM 39.2 °F 33.6 °F 24.8 °F 56% 30.00 in 10.0 mi WNW 8.1 mph - N/A   Overcast
9:50 PM 39.2 °F 33.6 °F 24.8 °F 56% 30.01 in 10.0 mi WNW 8.1 mph - N/A   Overcast
10:10 PM 39.2 °F 33.6 °F 24.8 °F 56% 30.01 in 10.0 mi WNW 8.1 mph - N/A   Overcast
10:30 PM 37.4 °F 31.4 °F 24.8 °F 60% 30.01 in 10.0 mi WNW 8.1 mph - N/A   Overcast
10:50 PM 37.4 °F 32.1 °F 24.8 °F 60% 30.01 in 10.0 mi WNW 6.9 mph - N/A   Overcast
11:10 PM 39.2 °F 34.2 °F 26.6 °F 61% 30.01 in 10.0 mi WNW 6.9 mph - N/A   Overcast
11:30 PM 37.4 °F 32.1 °F 26.6 °F 65% 30.01 in 10.0 mi WNW 6.9 mph - N/A   Overcast
11:50 PM 35.6 °F 29.9 °F 26.6 °F 70% 30.01 in 10.0 mi WNW 6.9 mph - N/A   Mostly Cloudy